Location: Lynchburg College Observatory
(37.3822°N, 79.5391°W)
Time: 00:35:00
(UTC-04:00)

Tiangong 2 - Visible Passes

Search period start: 27 April 2018 00:00
Search period end: 07 May 2018 00:00
Orbit: 381 x 388 km, 42.8° (Epoch: 26 April)

Date Brightness Start Highest point End Pass type
(mag) Time Alt. Az. Time Alt. Az. Time Alt. Az.
03 May 3.7 05:08:14 10° SSE 05:09:41 13° SE 05:11:08 10° ESE visible
04 May 1.9 05:43:25 10° SW 05:46:27 43° SSE 05:49:28 10° ENE visible
05 May 2.7 04:46:20 22° SSE 04:46:55 23° SE 04:49:30 10° E visible
06 May 1.0 05:21:34 18° WSW 05:23:48 81° SSE 05:26:58 10° ENE visible
